BEIDOU-3 M17 (43706 NORAD) Tracking and Keplerian Element Data

This shows tracking and keplerian element data for the satellite.

Feedback or suggestion? Click here.




ElementValue
Catalog43706
NameBEIDOU-3 M17
Epoch Orbit37
Epoch Day343.65969679
Epoch Year2018
RAAN276.0259
Inclination54.9763
Eccentricity0.0118554
Argument of Perigee178.146
Mean Anonmoly169.282
Mean Motion1.8296908
Decay Rate-3.2E-07
L11 43706U 18093A 18343.65969679 -.00000032 00000-0 00000-0 0 9993
L22 43706 54.9763 276.0259 0118554 178.1460 169.2820 1.82969080 379

Live tracking and technical data element details for BEIDOU-3 M17 (NORAD 43706). BEIDOU-3 M17 can be tracked NOW for your location showing map with azimuth and elevation plus other details from your city location.

Track the satellite on the map from your city or location and see movement details for azimuth, elevation, latitude, longitude, range, height, and movement on the map or in text.







IsCatalogInMostPopularTable: catalog: 43706, numindb: 10
Update: records affected: 1



GetName: 43706 BEIDOU-3 M17

Hit Count: updated at: Tue, 11 Dec 2018 02:49:25 GMT